EMISAT (44078 NORAD) Tracking and Keplerian Element Data

This shows tracking and keplerian element data for the satellite.

Feedback or suggestion? Click here.




ElementValue
Catalog44078
NameEMISAT
Epoch Orbit298
Epoch Day111.86051851
Epoch Year2019
RAAN172.1493
Inclination98.3819
Eccentricity0.0019632
Argument of Perigee189.6492
Mean Anonmoly170.4324
Mean Motion14.43896196
Decay Rate2E-07
L11 44078U 19018A 19111.86051851 .00000020 00000-0 18644-4 0 9998
L22 44078 98.3819 172.1493 0019632 189.6492 170.4324 14.43896196 2981

Live tracking and technical data element details for EMISAT (NORAD 44078). EMISAT can be tracked NOW for your location showing map with azimuth and elevation plus other details from your city location.

Track the satellite on the map from your city or location and see movement details for azimuth, elevation, latitude, longitude, range, height, and movement on the map or in text.







IsCatalogInMostPopularTable: catalog: 44078, numindb: 6
Update: records affected: 1



GetName: 44078 EMISAT

Hit Count: updated at: Tue, 23 Apr 2019 02:47:14 GMT